YZR7482 ZYHB-ZSNJ

Flight info

Callsign YZR7482
Flight time 2h 32m
Altitude 32100
Route DUKIR W655 NIMEM W205 NULRA A588 VENOS MAKNO W5 TAO W174 XDX MABEB GURIL RUXEL W178 OF
Aircraft B744/H-SDE2E3FGILRWXY/LB2

Departure

Time 2026-04-27 05:15
Airport Harbin Taiping International Airport (ZYHB)

Arrival

Time 2026-04-27 07:47
Airport Nanjing Lukou International Airport (ZSNJ)
Time Latitude Longitude Altitude Speed Heading
2026-04-27 04:52 45.63446 126.25712 513 ft 0 kts 129°
2026-04-27 05:08 45.63446 126.25713 513 ft 0 kts 129°
2026-04-27 05:08 45.63422 126.25754 513 ft 9 kts 130°
2026-04-27 05:08 45.63366 126.25768 513 ft 9 kts 201°
2026-04-27 05:09 45.63299 126.25790 513 ft 10 kts 167°
2026-04-27 05:09 45.63228 126.25747 513 ft 12 kts 220°
2026-04-27 05:09 45.63155 126.25660 513 ft 14 kts 219°
2026-04-27 05:09 45.63070 126.25561 513 ft 16 kts 219°
2026-04-27 05:10 45.62973 126.25446 513 ft 19 kts 219°
2026-04-27 05:10 45.62863 126.25317 513 ft 21 kts 219°
2026-04-27 05:10 45.62742 126.25176 513 ft 23 kts 219°
2026-04-27 05:10 45.62609 126.25021 513 ft 25 kts 219°
2026-04-27 05:11 45.62466 126.24852 513 ft 24 kts 219°
2026-04-27 05:11 45.62331 126.24695 513 ft 26 kts 220°
2026-04-27 05:11 45.62185 126.24523 513 ft 28 kts 218°
2026-04-27 05:11 45.62053 126.24369 513 ft 22 kts 219°
2026-04-27 05:12 45.61937 126.24232 513 ft 22 kts 219°
2026-04-27 05:12 45.61816 126.24091 513 ft 22 kts 219°
2026-04-27 05:12 45.61695 126.23949 513 ft 22 kts 219°
2026-04-27 05:12 45.61570 126.23802 513 ft 23 kts 219°
2026-04-27 05:13 45.61444 126.23655 513 ft 23 kts 219°
2026-04-27 05:13 45.61357 126.23552 513 ft 12 kts 219°
2026-04-27 05:13 45.61289 126.23518 513 ft 10 kts 158°
2026-04-27 05:13 45.61251 126.23605 513 ft 10 kts 94°
2026-04-27 05:14 45.61263 126.23710 513 ft 10 kts 74°
2026-04-27 05:14 45.61299 126.23796 513 ft 10 kts 40°
2026-04-27 05:14 45.61308 126.23807 513 ft 0 kts 39°
2026-04-27 05:14 45.61337 126.23840 513 ft 23 kts 39°
2026-04-27 05:15 45.61668 126.24229 514 ft 101 kts 40°
2026-04-27 05:15 45.62402 126.25088 516 ft 169 kts 36°
2026-04-27 05:15 45.63399 126.26276 927 ft 194 kts 38°
2026-04-27 05:15 45.64497 126.27407 1750 ft 200 kts 27°
2026-04-27 05:16 45.65792 126.27993 2526 ft 199 kts
2026-04-27 05:16 45.67159 126.27645 3152 ft 203 kts 335°
2026-04-27 05:16 45.68346 126.26547 3828 ft 206 kts 326°
2026-04-27 05:16 45.69516 126.25354 4479 ft 208 kts 328°
2026-04-27 05:17 45.70710 126.24195 5111 ft 212 kts 328°
2026-04-27 05:17 45.71951 126.22987 5564 ft 225 kts 328°
2026-04-27 05:17 45.73306 126.21671 5974 ft 242 kts 328°
2026-04-27 05:17 45.74693 126.20261 6627 ft 248 kts 320°
2026-04-27 05:18 45.75744 126.18324 7316 ft 256 kts 298°
2026-04-27 05:18 45.76320 126.15891 7998 ft 263 kts 288°
2026-04-27 05:18 45.76810 126.13353 8661 ft 268 kts 290°
2026-04-27 05:18 45.77354 126.10785 9298 ft 275 kts 290°
2026-04-27 05:19 45.77902 126.08170 10030 ft 277 kts 290°
2026-04-27 05:19 45.78336 126.05467 10736 ft 283 kts 277°
2026-04-27 05:19 45.78157 126.02666 11391 ft 292 kts 258°
2026-04-27 05:19 45.77288 125.99992 12023 ft 302 kts 238°
2026-04-27 05:20 45.75839 125.97835 12600 ft 311 kts 220°
2026-04-27 05:20 45.74034 125.96080 13183 ft 316 kts 218°
2026-04-27 05:20 45.72217 125.94283 13740 ft 318 kts 220°
2026-04-27 05:20 45.70406 125.92440 14263 ft 323 kts 220°
2026-04-27 05:21 45.68581 125.90592 14744 ft 328 kts 220°
2026-04-27 05:21 45.66703 125.88692 15173 ft 334 kts 221°
2026-04-27 05:21 45.64854 125.86610 15507 ft 342 kts 225°
2026-04-27 05:21 45.62997 125.84392 15770 ft 355 kts 224°
2026-04-27 05:22 45.61086 125.82175 16329 ft 357 kts 225°
2026-04-27 05:22 45.59162 125.79922 16857 ft 359 kts 225°
2026-04-27 05:22 45.57240 125.77696 17434 ft 360 kts 224°
2026-04-27 05:22 45.55282 125.75442 17947 ft 362 kts 225°
2026-04-27 05:23 45.53330 125.73190 18497 ft 362 kts 225°
2026-04-27 05:23 45.51375 125.70938 19002 ft 364 kts 225°
2026-04-27 05:23 45.49405 125.68667 19489 ft 366 kts 225°
2026-04-27 05:23 45.47425 125.66383 20012 ft 366 kts 225°
2026-04-27 05:24 45.45375 125.64210 20468 ft 381 kts 215°
2026-04-27 05:24 45.42916 125.62737 21331 ft 391 kts 200°
2026-04-27 05:24 45.40186 125.62183 22107 ft 403 kts 184°
2026-04-27 05:24 45.37409 125.62624 22907 ft 412 kts 170°
2026-04-27 05:25 45.34684 125.64020 23567 ft 421 kts 158°
2026-04-27 05:25 45.32049 125.65823 24294 ft 424 kts 158°
2026-04-27 05:25 45.29292 125.67497 24910 ft 427 kts 164°
2026-04-27 05:25 45.26468 125.68823 25658 ft 427 kts 166°
2026-04-27 05:26 45.23645 125.70195 26282 ft 431 kts 165°
2026-04-27 05:26 45.20818 125.71584 26920 ft 434 kts 165°
2026-04-27 05:26 45.17913 125.72997 27508 ft 437 kts 165°
2026-04-27 05:26 45.15019 125.74428 28084 ft 441 kts 165°
2026-04-27 05:27 45.12133 125.75851 28675 ft 442 kts 165°
2026-04-27 05:27 45.09174 125.77303 29222 ft 445 kts 166°
2026-04-27 05:27 45.06181 125.78773 29827 ft 447 kts 166°
2026-04-27 05:27 45.03229 125.80224 30397 ft 448 kts 166°
2026-04-27 05:28 45.00238 125.81706 30954 ft 449 kts 166°
2026-04-27 05:28 44.97282 125.83173 31477 ft 450 kts 166°
2026-04-27 05:28 44.94286 125.84673 31861 ft 454 kts 167°
2026-04-27 05:28 44.91217 125.86121 32099 ft 464 kts 167°
2026-04-27 05:29 44.88117 125.87624 32213 ft 476 kts 166°
2026-04-27 05:29 44.81750 125.90707 32224 ft 490 kts 166°
2026-04-27 05:30 44.75309 125.93607 32102 ft 479 kts 175°
2026-04-27 05:30 44.72062 125.93968 32084 ft 468 kts 188°
2026-04-27 05:30 44.68883 125.93394 32104 ft 461 kts 197°
2026-04-27 05:31 44.62519 125.91883 32128 ft 464 kts 195°
2026-04-27 05:31 44.56127 125.90422 32118 ft 465 kts 195°
2026-04-27 05:32 44.49688 125.88982 32096 ft 461 kts 194°
2026-04-27 05:32 44.43272 125.87590 32102 ft 462 kts 194°
2026-04-27 05:33 44.36836 125.86194 32099 ft 461 kts 194°
2026-04-27 05:33 44.30452 125.84821 32099 ft 460 kts 194°
2026-04-27 05:34 44.24010 125.83412 32096 ft 458 kts 194°
2026-04-27 05:34 44.17641 125.82026 32097 ft 457 kts 194°
2026-04-27 05:35 44.11263 125.80753 32078 ft 462 kts 188°
2026-04-27 05:35 44.08049 125.80987 32077 ft 470 kts 175°
2026-04-27 05:35 44.04876 125.82213 32087 ft 477 kts 163°
2026-04-27 05:36 43.98873 125.86228 32113 ft 476 kts 160°
2026-04-27 05:36 43.95799 125.87845 32077 ft 466 kts 171°
2026-04-27 05:36 43.92651 125.88496 32078 ft 457 kts 184°
2026-04-27 05:36 43.89520 125.88173 32096 ft 450 kts 195°
2026-04-27 05:37 43.86460 125.87371 32128 ft 451 kts 195°
2026-04-27 05:37 43.80232 125.85896 32118 ft 453 kts 195°
2026-04-27 05:38 43.74399 125.83167 32080 ft 438 kts 212°
2026-04-27 05:38 43.68961 125.79246 32098 ft 441 kts 212°
2026-04-27 05:39 43.63481 125.75333 32087 ft 439 kts 212°
2026-04-27 05:39 43.57997 125.71427 32081 ft 439 kts 211°
2026-04-27 05:40 43.52532 125.67535 32078 ft 439 kts 211°
2026-04-27 05:40 43.47062 125.63657 32077 ft 439 kts 211°
2026-04-27 05:41 43.41544 125.59747 32075 ft 439 kts 211°
2026-04-27 05:41 43.36060 125.55873 32075 ft 440 kts 211°
2026-04-27 05:42 43.30546 125.51992 32069 ft 439 kts 211°
2026-04-27 05:42 43.25068 125.48129 32062 ft 438 kts 211°
2026-04-27 05:43 43.19575 125.44270 32064 ft 438 kts 211°
2026-04-27 05:43 43.14111 125.40445 32068 ft 439 kts 211°
2026-04-27 05:44 43.08630 125.36609 32065 ft 439 kts 210°
2026-04-27 05:44 43.03160 125.32797 32074 ft 440 kts 210°
2026-04-27 05:45 42.97735 125.29018 32069 ft 440 kts 210°
2026-04-27 05:45 42.92270 125.25223 32069 ft 440 kts 210°
2026-04-27 05:46 42.86824 125.21442 32057 ft 439 kts 210°
2026-04-27 05:46 42.81428 125.17647 32058 ft 437 kts 210°
2026-04-27 05:47 42.76012 125.13870 32054 ft 437 kts 210°
2026-04-27 05:47 42.70645 125.10122 32047 ft 435 kts 210°
2026-04-27 05:48 42.65221 125.06325 32056 ft 438 kts 210°
2026-04-27 05:48 42.59757 125.02512 32044 ft 435 kts 211°
2026-04-27 05:49 42.54359 124.98760 32030 ft 433 kts 211°
2026-04-27 05:49 42.48943 124.94984 32043 ft 434 kts 211°
2026-04-27 05:50 42.43525 124.91219 32029 ft 433 kts 211°
2026-04-27 05:50 42.38104 124.87470 32016 ft 431 kts 211°
2026-04-27 05:51 42.32733 124.83745 32023 ft 431 kts 211°
2026-04-27 05:51 42.27342 124.80026 32016 ft 430 kts 211°
2026-04-27 05:52 42.21940 124.76305 32029 ft 431 kts 211°
2026-04-27 05:52 42.16525 124.72589 32032 ft 430 kts 211°
2026-04-27 05:53 42.11178 124.68908 32017 ft 428 kts 211°
2026-04-27 05:53 42.05798 124.65234 32016 ft 426 kts 211°
2026-04-27 05:54 42.00448 124.61550 32018 ft 425 kts 211°
2026-04-27 05:54 41.95219 124.57713 32021 ft 424 kts 213°
2026-04-27 05:55 41.90018 124.53765 32025 ft 425 kts 213°
2026-04-27 05:55 41.84815 124.49809 32012 ft 425 kts 213°
2026-04-27 05:56 41.79605 124.45846 32013 ft 424 kts 213°
2026-04-27 05:56 41.74438 124.41913 32004 ft 422 kts 213°
2026-04-27 05:57 41.69233 124.37969 32020 ft 424 kts 213°
2026-04-27 05:57 41.64057 124.34045 32008 ft 424 kts 212°
2026-04-27 05:58 41.58923 124.30171 32005 ft 421 kts 212°
2026-04-27 05:58 41.53858 124.26346 31992 ft 421 kts 212°
2026-04-27 05:59 41.48732 124.22500 31991 ft 423 kts 212°
2026-04-27 05:59 41.43615 124.18628 32006 ft 424 kts 213°
2026-04-27 06:00 41.35796 124.12858 31990 ft 423 kts 211°
2026-04-27 06:00 41.30613 124.09113 31969 ft 421 kts 211°
2026-04-27 06:01 41.25391 124.05342 31966 ft 420 kts 211°
2026-04-27 06:01 41.20219 124.01601 31970 ft 419 kts 211°
2026-04-27 06:02 41.15022 123.97856 31961 ft 420 kts 211°
2026-04-27 06:02 41.09808 123.94103 31958 ft 421 kts 211°
2026-04-27 06:03 41.04599 123.90356 31954 ft 421 kts 211°
2026-04-27 06:03 40.99394 123.86652 31969 ft 421 kts 211°
2026-04-27 06:04 40.94201 123.82942 31957 ft 419 kts 211°
2026-04-27 06:04 40.88982 123.79223 31953 ft 423 kts 211°
2026-04-27 06:05 40.83819 123.75488 31954 ft 424 kts 212°
2026-04-27 06:05 40.78663 123.71704 31958 ft 423 kts 212°
2026-04-27 06:06 40.73532 123.67966 31955 ft 424 kts 212°
2026-04-27 06:06 40.68382 123.64190 31943 ft 423 kts 212°
2026-04-27 06:07 40.63144 123.60373 31936 ft 426 kts 212°
2026-04-27 06:07 40.57954 123.56483 31957 ft 426 kts 213°
2026-04-27 06:08 40.52669 123.52670 31924 ft 429 kts 212°
2026-04-27 06:08 40.47355 123.48801 31945 ft 428 kts 213°
2026-04-27 06:09 40.42079 123.44976 31916 ft 430 kts 213°
2026-04-27 06:09 40.36773 123.41138 31916 ft 432 kts 213°
2026-04-27 06:10 40.31468 123.37272 31932 ft 432 kts 213°
2026-04-27 06:10 40.26134 123.33420 31926 ft 434 kts 213°
2026-04-27 06:11 40.20821 123.29575 31898 ft 433 kts 213°
2026-04-27 06:11 40.15453 123.25728 31950 ft 432 kts 213°
2026-04-27 06:12 40.10105 123.21878 31903 ft 433 kts 213°
2026-04-27 06:12 40.04777 123.17945 31920 ft 435 kts 215°
2026-04-27 06:13 39.99388 123.14066 31914 ft 435 kts 214°
2026-04-27 06:13 39.94043 123.10193 31918 ft 436 kts 214°
2026-04-27 06:14 39.88696 123.06330 31925 ft 435 kts 214°
2026-04-27 06:14 39.83333 123.02443 31906 ft 435 kts 214°
2026-04-27 06:15 39.77980 122.98574 31902 ft 435 kts 215°
2026-04-27 06:15 39.72666 122.94741 31937 ft 433 kts 215°
2026-04-27 06:16 39.67319 122.90908 31931 ft 434 kts 215°
2026-04-27 06:16 39.62025 122.87101 31938 ft 434 kts 215°
2026-04-27 06:17 39.56670 122.83249 31929 ft 435 kts 215°
2026-04-27 06:17 39.51355 122.79427 31930 ft 433 kts 216°
2026-04-27 06:18 39.46022 122.75632 31923 ft 433 kts 216°
2026-04-27 06:18 39.40667 122.71816 31930 ft 434 kts 216°
2026-04-27 06:19 39.35327 122.68044 31932 ft 433 kts 216°
2026-04-27 06:19 39.29989 122.64210 31932 ft 432 kts 217°
2026-04-27 06:20 39.24788 122.60260 31932 ft 428 kts 219°
2026-04-27 06:20 39.19660 122.56205 31941 ft 430 kts 219°
2026-04-27 06:21 39.14561 122.52151 31936 ft 430 kts 219°
2026-04-27 06:21 39.09417 122.48071 31940 ft 429 kts 219°
2026-04-27 06:22 39.04272 122.43993 31931 ft 426 kts 220°
2026-04-27 06:22 38.99173 122.40005 31930 ft 427 kts 220°
2026-04-27 06:23 38.94062 122.35929 31927 ft 428 kts 221°
2026-04-27 06:23 38.91664 122.33715 31908 ft 414 kts 230°
2026-04-27 06:23 38.89804 122.30957 31911 ft 402 kts 243°
2026-04-27 06:24 38.87309 122.24586 31956 ft 403 kts 248°
2026-04-27 06:24 38.84882 122.18169 31938 ft 400 kts 249°
2026-04-27 06:25 38.82494 122.11778 31926 ft 399 kts 249°
2026-04-27 06:25 38.80085 122.05323 31920 ft 397 kts 249°
2026-04-27 06:26 38.77700 121.98891 31916 ft 398 kts 249°
2026-04-27 06:26 38.75333 121.92499 31918 ft 394 kts 249°
2026-04-27 06:27 38.72939 121.86071 31912 ft 397 kts 250°
2026-04-27 06:27 38.70537 121.79649 31923 ft 394 kts 250°
2026-04-27 06:28 38.68160 121.73238 31918 ft 394 kts 250°
2026-04-27 06:28 38.65762 121.66859 31929 ft 396 kts 250°
2026-04-27 06:29 38.63382 121.60509 31935 ft 395 kts 250°
2026-04-27 06:29 38.60995 121.54144 31930 ft 392 kts 250°
2026-04-27 06:30 38.58603 121.47785 31943 ft 394 kts 250°
2026-04-27 06:30 38.56227 121.41472 31917 ft 391 kts 250°
2026-04-27 06:31 38.53840 121.35189 31942 ft 391 kts 251°
2026-04-27 06:31 38.51411 121.28935 31959 ft 394 kts 250°
2026-04-27 06:32 38.49038 121.22669 31955 ft 393 kts 251°
2026-04-27 06:32 38.46785 121.16367 31952 ft 389 kts 252°
2026-04-27 06:33 38.44104 121.10382 31946 ft 399 kts 243°
2026-04-27 06:33 38.41050 121.04433 31965 ft 394 kts 245°
2026-04-27 06:34 38.38041 120.98480 31967 ft 392 kts 246°
2026-04-27 06:34 38.35053 120.92499 31967 ft 393 kts 246°
2026-04-27 06:35 38.32077 120.86578 31970 ft 395 kts 245°
2026-04-27 06:35 38.29086 120.80643 31973 ft 391 kts 246°
2026-04-27 06:36 38.26204 120.74690 31962 ft 390 kts 246°
2026-04-27 06:36 38.24508 120.71918 31939 ft 407 kts 235°
2026-04-27 06:36 38.22233 120.69669 31952 ft 427 kts 223°
2026-04-27 06:37 38.19495 120.68032 31979 ft 439 kts 216°
2026-04-27 06:37 38.16690 120.66538 31979 ft 434 kts 218°
2026-04-27 06:37 38.11207 120.63317 31970 ft 429 kts 218°
2026-04-27 06:38 38.05774 120.60046 31962 ft 426 kts 220°
2026-04-27 06:38 38.00273 120.57083 31944 ft 445 kts 207°
2026-04-27 06:39 37.97108 120.56604 31947 ft 471 kts 196°
2026-04-27 06:39 37.93810 120.56535 31988 ft 472 kts 197°
2026-04-27 06:39 37.87288 120.56148 31971 ft 462 kts 198°
2026-04-27 06:40 37.80881 120.55711 31976 ft 462 kts 198°
2026-04-27 06:40 37.74451 120.55260 31968 ft 464 kts 199°
2026-04-27 06:41 37.67995 120.54751 31984 ft 464 kts 199°
2026-04-27 06:41 37.61560 120.53974 31962 ft 454 kts 202°
2026-04-27 06:42 37.55164 120.53062 31981 ft 456 kts 202°
2026-04-27 06:42 37.48784 120.52119 31981 ft 454 kts 201°
2026-04-27 06:43 37.42418 120.51176 31978 ft 455 kts 202°
2026-04-27 06:43 37.35989 120.50217 31992 ft 458 kts 201°
2026-04-27 06:44 37.29608 120.49262 31973 ft 456 kts 202°
2026-04-27 06:44 37.23222 120.48325 31994 ft 452 kts 202°
2026-04-27 06:45 37.16875 120.47385 31987 ft 457 kts 202°
2026-04-27 06:45 37.10469 120.46433 31980 ft 457 kts 202°
2026-04-27 06:46 37.04154 120.45503 31976 ft 453 kts 202°
2026-04-27 06:46 36.97810 120.44577 31976 ft 454 kts 201°
2026-04-27 06:47 36.91456 120.43635 31981 ft 456 kts 201°
2026-04-27 06:47 36.85122 120.42697 31972 ft 456 kts 201°
2026-04-27 06:48 36.78838 120.41782 31962 ft 456 kts 201°
2026-04-27 06:48 36.72571 120.40850 31957 ft 452 kts 201°
2026-04-27 06:49 36.66340 120.39964 31967 ft 450 kts 200°
2026-04-27 06:49 36.60089 120.39067 31968 ft 454 kts 200°
2026-04-27 06:50 36.53866 120.38076 31970 ft 446 kts 202°
2026-04-27 06:50 36.50745 120.37719 31933 ft 463 kts 195°
2026-04-27 06:50 36.47516 120.37700 31972 ft 464 kts 195°
2026-04-27 06:51 36.41084 120.37506 31975 ft 463 kts 195°
2026-04-27 06:51 36.34676 120.37307 31965 ft 456 kts 195°
2026-04-27 06:52 36.28406 120.36933 31955 ft 443 kts 201°
2026-04-27 06:52 36.22432 120.35474 31988 ft 443 kts 204°
2026-04-27 06:53 36.16330 120.33907 32024 ft 446 kts 204°
2026-04-27 06:53 36.10230 120.32387 31982 ft 446 kts 204°
2026-04-27 06:54 36.04195 120.30850 31958 ft 439 kts 205°
2026-04-27 06:54 35.98317 120.28968 31925 ft 423 kts 214°
2026-04-27 06:55 35.95838 120.27206 31938 ft 403 kts 227°
2026-04-27 06:55 35.93696 120.25011 31976 ft 402 kts 230°
2026-04-27 06:55 35.89309 120.20607 31982 ft 410 kts 229°
2026-04-27 06:56 35.84912 120.16154 31969 ft 410 kts 229°
2026-04-27 06:56 35.80558 120.11728 31968 ft 407 kts 229°
2026-04-27 06:57 35.76191 120.07282 31970 ft 407 kts 230°
2026-04-27 06:57 35.71789 120.02795 31994 ft 406 kts 229°
2026-04-27 06:58 35.65227 119.96130 31965 ft 414 kts 229°
2026-04-27 06:59 35.60791 119.91643 31973 ft 413 kts 229°
2026-04-27 06:59 35.56344 119.87148 31955 ft 413 kts 229°
2026-04-27 07:00 35.51928 119.82761 31960 ft 410 kts 229°
2026-04-27 07:00 35.47536 119.78268 31976 ft 411 kts 230°
2026-04-27 07:01 35.43288 119.73615 31961 ft 406 kts 232°
2026-04-27 07:01 35.38829 119.69223 31976 ft 412 kts 229°
2026-04-27 07:02 35.34370 119.64771 31954 ft 415 kts 229°
2026-04-27 07:02 35.29919 119.60253 31963 ft 414 kts 229°
2026-04-27 07:03 35.25510 119.55763 31948 ft 413 kts 230°
2026-04-27 07:03 35.21070 119.51263 31957 ft 417 kts 229°
2026-04-27 07:04 35.16647 119.46743 31954 ft 413 kts 230°
2026-04-27 07:04 35.12221 119.42279 31948 ft 414 kts 230°
2026-04-27 07:05 35.07775 119.37772 31965 ft 414 kts 230°
2026-04-27 07:05 35.03318 119.33263 31964 ft 419 kts 229°
2026-04-27 07:06 34.98829 119.28690 31957 ft 419 kts 228°
2026-04-27 07:06 34.94347 119.24181 31945 ft 418 kts 228°
2026-04-27 07:07 34.89879 119.19680 31939 ft 416 kts 229°
2026-04-27 07:07 34.85416 119.15184 31950 ft 417 kts 229°
2026-04-27 07:08 34.80910 119.10649 31937 ft 419 kts 229°
2026-04-27 07:08 34.76411 119.06135 31946 ft 418 kts 229°
2026-04-27 07:09 34.71911 119.01640 31936 ft 419 kts 229°
2026-04-27 07:09 34.67400 118.97181 31948 ft 419 kts 228°
2026-04-27 07:10 34.62898 118.92656 31932 ft 420 kts 229°
2026-04-27 07:10 34.57996 118.88629 31907 ft 442 kts 212°
2026-04-27 07:10 34.55004 118.87608 31916 ft 458 kts 200°
2026-04-27 07:11 34.51757 118.87221 31952 ft 465 kts 195°
2026-04-27 07:11 34.45453 118.86375 31842 ft 446 kts 198°
2026-04-27 07:11 34.42383 118.85925 31601 ft 439 kts 199°
2026-04-27 07:12 34.39360 118.85448 31349 ft 434 kts 199°
2026-04-27 07:12 34.36379 118.84968 31125 ft 435 kts 199°
2026-04-27 07:12 34.33360 118.84489 30894 ft 435 kts 198°
2026-04-27 07:12 34.30389 118.84016 30683 ft 430 kts 199°
2026-04-27 07:13 34.27446 118.83553 30425 ft 428 kts 198°
2026-04-27 07:13 34.24493 118.83086 30164 ft 426 kts 198°
2026-04-27 07:13 34.21540 118.82608 29930 ft 422 kts 198°
2026-04-27 07:13 34.18615 118.82144 29672 ft 422 kts 198°
2026-04-27 07:14 34.15727 118.81676 29446 ft 419 kts 198°
2026-04-27 07:14 34.12836 118.81171 29204 ft 416 kts 198°
2026-04-27 07:14 34.10000 118.80682 28953 ft 415 kts 198°
2026-04-27 07:14 34.07109 118.80246 28716 ft 415 kts 197°
2026-04-27 07:15 34.04231 118.79808 28475 ft 414 kts 198°
2026-04-27 07:15 34.01371 118.79347 28244 ft 415 kts 197°
2026-04-27 07:15 33.98531 118.78911 28021 ft 414 kts 197°
2026-04-27 07:15 33.95655 118.78462 27789 ft 412 kts 197°
2026-04-27 07:16 33.92798 118.78002 27548 ft 410 kts 197°
2026-04-27 07:16 33.89991 118.77545 27307 ft 408 kts 198°
2026-04-27 07:16 33.87172 118.77080 27073 ft 407 kts 198°
2026-04-27 07:16 33.84365 118.76578 26833 ft 405 kts 198°
2026-04-27 07:17 33.81581 118.76154 26594 ft 406 kts 196°
2026-04-27 07:17 33.78762 118.75719 26360 ft 405 kts 197°
2026-04-27 07:17 33.75962 118.75269 26138 ft 403 kts 196°
2026-04-27 07:17 33.73182 118.74830 25904 ft 401 kts 197°
2026-04-27 07:18 33.70430 118.74388 25662 ft 402 kts 196°
2026-04-27 07:18 33.67648 118.73953 25438 ft 400 kts 196°
2026-04-27 07:18 33.64919 118.73516 25208 ft 397 kts 197°
2026-04-27 07:18 33.62150 118.73077 24972 ft 396 kts 196°
2026-04-27 07:19 33.59435 118.72649 24733 ft 395 kts 196°
2026-04-27 07:19 33.56727 118.72218 24501 ft 394 kts 196°
2026-04-27 07:19 33.53986 118.71777 24267 ft 394 kts 196°
2026-04-27 07:19 33.51272 118.71339 24037 ft 392 kts 195°
2026-04-27 07:20 33.48572 118.70890 23793 ft 390 kts 197°
2026-04-27 07:20 33.45901 118.70427 23550 ft 388 kts 196°
2026-04-27 07:20 33.43224 118.70010 23318 ft 388 kts 195°
2026-04-27 07:20 33.40571 118.69602 23094 ft 385 kts 195°
2026-04-27 07:21 33.37895 118.69177 22861 ft 384 kts 195°
2026-04-27 07:21 33.35240 118.68755 22636 ft 384 kts 195°
2026-04-27 07:21 33.32621 118.68350 22421 ft 383 kts 195°
2026-04-27 07:21 33.29962 118.67924 22200 ft 381 kts 195°
2026-04-27 07:22 33.27338 118.67501 21980 ft 380 kts 195°
2026-04-27 07:22 33.24738 118.67090 21765 ft 381 kts 195°
2026-04-27 07:22 33.22080 118.66637 21549 ft 380 kts 195°
2026-04-27 07:22 33.19471 118.66200 21326 ft 380 kts 194°
2026-04-27 07:23 33.16852 118.65790 21108 ft 380 kts 194°
2026-04-27 07:23 33.14204 118.65366 20892 ft 379 kts 194°
2026-04-27 07:23 33.11618 118.64954 20699 ft 376 kts 194°
2026-04-27 07:23 33.09012 118.64532 20572 ft 374 kts 194°
2026-04-27 07:24 33.06461 118.64120 20514 ft 375 kts 194°
2026-04-27 07:24 33.03882 118.63702 20508 ft 375 kts 193°
2026-04-27 07:24 33.01253 118.63281 20530 ft 377 kts 194°
2026-04-27 07:24 32.98658 118.62869 20546 ft 377 kts 193°
2026-04-27 07:25 32.96063 118.62457 20549 ft 377 kts 193°
2026-04-27 07:25 32.93471 118.62043 20545 ft 376 kts 194°
2026-04-27 07:25 32.90867 118.61629 20545 ft 377 kts 194°
2026-04-27 07:25 32.88252 118.61211 20552 ft 377 kts 193°
2026-04-27 07:26 32.85654 118.60783 20549 ft 378 kts 193°
2026-04-27 07:26 32.83035 118.60369 20549 ft 377 kts 194°
2026-04-27 07:26 32.80441 118.59962 20543 ft 376 kts 193°
2026-04-27 07:26 32.77824 118.59545 20542 ft 376 kts 194°
2026-04-27 07:27 32.75222 118.59132 20547 ft 377 kts 193°
2026-04-27 07:27 32.72645 118.58718 20556 ft 377 kts 194°
2026-04-27 07:27 32.70054 118.58292 20558 ft 377 kts 194°
2026-04-27 07:27 32.67399 118.58051 20526 ft 384 kts 183°
2026-04-27 07:28 32.64763 118.58579 20519 ft 389 kts 170°
2026-04-27 07:28 32.62154 118.59537 20380 ft 386 kts 169°
2026-04-27 07:28 32.59621 118.60403 20037 ft 381 kts 170°
2026-04-27 07:28 32.57070 118.61262 19578 ft 378 kts 169°
2026-04-27 07:29 32.54545 118.62119 19074 ft 373 kts 169°
2026-04-27 07:29 32.52075 118.62951 18579 ft 368 kts 169°
2026-04-27 07:29 32.49628 118.63780 18095 ft 366 kts 169°
2026-04-27 07:29 32.47185 118.64608 17629 ft 363 kts 169°
2026-04-27 07:30 32.44776 118.65415 17155 ft 361 kts 168°
2026-04-27 07:30 32.42374 118.66228 16674 ft 359 kts 168°
2026-04-27 07:30 32.39964 118.67049 16178 ft 356 kts 168°
2026-04-27 07:30 32.37610 118.67847 15711 ft 354 kts 168°
2026-04-27 07:31 32.35267 118.68636 15220 ft 350 kts 168°
2026-04-27 07:31 32.32932 118.69425 14742 ft 347 kts 168°
2026-04-27 07:31 32.30592 118.70210 14262 ft 347 kts 168°
2026-04-27 07:31 32.28224 118.70995 13802 ft 361 kts 167°
2026-04-27 07:32 32.25843 118.71790 13367 ft 354 kts 167°
2026-04-27 07:32 32.23505 118.72583 12892 ft 346 kts 167°
2026-04-27 07:32 32.21216 118.73367 12400 ft 340 kts 166°
2026-04-27 07:32 32.18960 118.74143 11909 ft 335 kts 166°
2026-04-27 07:33 32.16752 118.74908 11420 ft 330 kts 166°
2026-04-27 07:33 32.14554 118.75652 10924 ft 325 kts 167°
2026-04-27 07:33 32.12394 118.76364 10436 ft 320 kts 167°
2026-04-27 07:33 32.10283 118.77073 9949 ft 316 kts 167°
2026-04-27 07:34 32.08176 118.77782 9460 ft 313 kts 166°
2026-04-27 07:34 32.06090 118.78483 8965 ft 310 kts 167°
2026-04-27 07:34 32.04029 118.79197 8468 ft 307 kts 167°
2026-04-27 07:34 32.01996 118.79863 7982 ft 304 kts 167°
2026-04-27 07:35 31.99940 118.80550 7476 ft 302 kts 167°
2026-04-27 07:35 31.97936 118.81210 7140 ft 294 kts 168°
2026-04-27 07:35 31.96011 118.81818 6982 ft 280 kts 168°
2026-04-27 07:35 31.94174 118.82404 6769 ft 273 kts 168°
2026-04-27 07:36 31.92338 118.82983 6452 ft 269 kts 169°
2026-04-27 07:36 31.90549 118.83556 6141 ft 265 kts 169°
2026-04-27 07:36 31.88759 118.84120 5837 ft 264 kts 168°
2026-04-27 07:36 31.86987 118.84689 5513 ft 264 kts 165°
2026-04-27 07:37 31.85370 118.85677 5193 ft 264 kts 141°
2026-04-27 07:37 31.84180 118.87311 4893 ft 261 kts 118°
2026-04-27 07:37 31.83622 118.89290 4602 ft 255 kts 94°
2026-04-27 07:37 31.83748 118.91322 4293 ft 248 kts 69°
2026-04-27 07:38 31.84526 118.93064 4065 ft 236 kts 44°
2026-04-27 07:38 31.85690 118.94408 3982 ft 234 kts 39°
2026-04-27 07:38 31.86867 118.95729 3950 ft 235 kts 41°
2026-04-27 07:38 31.88041 118.97104 3935 ft 236 kts 41°
2026-04-27 07:39 31.89204 118.98466 3916 ft 236 kts 41°
2026-04-27 07:39 31.90364 118.99828 3894 ft 236 kts 41°
2026-04-27 07:39 31.91531 119.01209 3889 ft 236 kts 41°
2026-04-27 07:39 31.92684 119.02570 3890 ft 236 kts 41°
2026-04-27 07:40 31.93830 119.03946 3885 ft 235 kts 46°
2026-04-27 07:40 31.94621 119.05582 3789 ft 228 kts 71°
2026-04-27 07:40 31.94748 119.07400 3628 ft 221 kts 98°
2026-04-27 07:40 31.94187 119.09087 3505 ft 220 kts 126°
2026-04-27 07:41 31.93077 119.10291 3370 ft 218 kts 154°
2026-04-27 07:41 31.91665 119.10832 3263 ft 213 kts 173°
2026-04-27 07:41 31.90192 119.11121 3167 ft 213 kts 172°
2026-04-27 07:41 31.88746 119.11475 3049 ft 214 kts 170°
2026-04-27 07:42 31.87278 119.11731 2899 ft 211 kts 186°
2026-04-27 07:42 31.85896 119.11295 2758 ft 204 kts 214°
2026-04-27 07:42 31.84868 119.10181 2636 ft 198 kts 240°
2026-04-27 07:42 31.84164 119.08795 2561 ft 197 kts 243°
2026-04-27 07:43 31.83444 119.07429 2468 ft 199 kts 240°
2026-04-27 07:43 31.82699 119.06059 2371 ft 198 kts 241°
2026-04-27 07:43 31.81982 119.04673 2282 ft 196 kts 241°
2026-04-27 07:43 31.81281 119.03383 2226 ft 184 kts 241°
2026-04-27 07:44 31.80610 119.02125 2072 ft 179 kts 241°
2026-04-27 07:44 31.79950 119.00891 1988 ft 177 kts 241°
2026-04-27 07:44 31.79310 118.99693 2024 ft 169 kts 242°
2026-04-27 07:44 31.78691 118.98537 2192 ft 163 kts 242°
2026-04-27 07:45 31.78092 118.97424 2067 ft 163 kts 242°
2026-04-27 07:45 31.77489 118.96296 1787 ft 160 kts 243°
2026-04-27 07:45 31.76914 118.95201 1539 ft 158 kts 242°
2026-04-27 07:45 31.76330 118.94099 1314 ft 156 kts 241°
2026-04-27 07:46 31.75755 118.93027 1121 ft 155 kts 240°
2026-04-27 07:46 31.75177 118.91951 922 ft 156 kts 240°
2026-04-27 07:46 31.74601 118.90880 712 ft 156 kts 240°
2026-04-27 07:46 31.74021 118.89791 482 ft 155 kts 239°
2026-04-27 07:47 31.73449 118.88730 259 ft 155 kts 239°
2026-04-27 07:47 31.72873 118.87656 81 ft 153 kts 239°
2026-04-27 07:47 31.72351 118.86678 60 ft 115 kts 237°
2026-04-27 07:47 31.72049 118.86115 60 ft 49 kts 238°
2026-04-27 07:48 31.71962 118.85940 60 ft 18 kts 244°
2026-04-27 07:48 31.71930 118.85838 60 ft 11 kts 255°
2026-04-27 07:48 31.71918 118.85757 60 ft 7 kts 262°
2026-04-27 07:48 31.71913 118.85695 60 ft 7 kts 265°
2026-04-27 07:49 31.71915 118.85632 60 ft 7 kts 289°
2026-04-27 07:49 31.71952 118.85591 60 ft 7 kts 351°
2026-04-27 07:49 31.71991 118.85622 60 ft 7 kts 63°
2026-04-27 07:49 31.72017 118.85678 60 ft 8 kts 58°
2026-04-27 07:50 31.72051 118.85742 60 ft 9 kts 58°
2026-04-27 07:50 31.72089 118.85813 60 ft 11 kts 58°
2026-04-27 07:50 31.72132 118.85894 60 ft 12 kts 58°
2026-04-27 07:50 31.72179 118.85981 60 ft 12 kts 58°
2026-04-27 07:51 31.72228 118.86073 60 ft 13 kts 58°
2026-04-27 07:51 31.72280 118.86170 60 ft 14 kts 58°
2026-04-27 07:51 31.72334 118.86272 60 ft 15 kts 58°
2026-04-27 07:51 31.72392 118.86379 60 ft 15 kts 58°
2026-04-27 07:52 31.72451 118.86491 60 ft 16 kts 58°
2026-04-27 07:52 31.72508 118.86597 60 ft 10 kts 58°
2026-04-27 07:52 31.72540 118.86633 60 ft 6 kts 15°
2026-04-27 07:52 31.72584 118.86625 60 ft 6 kts 328°
2026-04-27 07:53 31.72627 118.86593 60 ft 7 kts 328°
2026-04-27 07:53 31.72676 118.86558 60 ft 8 kts 328°
2026-04-27 07:53 31.72729 118.86519 60 ft 9 kts 328°
2026-04-27 07:53 31.72788 118.86475 60 ft 10 kts 328°
2026-04-27 07:54 31.72851 118.86429 60 ft 11 kts 327°
2026-04-27 07:54 31.72920 118.86378 60 ft 11 kts 329°
2026-04-27 07:54 31.72994 118.86326 60 ft 12 kts 328°
2026-04-27 07:54 31.73070 118.86269 60 ft 13 kts 327°
2026-04-27 07:55 31.73151 118.86210 60 ft 14 kts 329°
2026-04-27 07:55 31.73236 118.86148 60 ft 14 kts 327°
2026-04-27 07:55 31.73325 118.86082 60 ft 15 kts 328°
2026-04-27 07:55 31.73419 118.86014 60 ft 16 kts 328°
2026-04-27 07:56 31.73516 118.85943 60 ft 16 kts 328°
2026-04-27 07:56 31.73618 118.85869 60 ft 17 kts 328°
2026-04-27 07:56 31.73710 118.85802 60 ft 8 kts 328°
2026-04-27 07:56 31.73762 118.85780 60 ft 8 kts 13°
2026-04-27 07:57 31.73807 118.85824 60 ft 9 kts 58°
2026-04-27 07:57 31.73842 118.85889 60 ft 10 kts 58°
2026-04-27 07:57 31.73881 118.85963 60 ft 10 kts 58°
2026-04-27 07:57 31.73923 118.86041 60 ft 11 kts 58°
2026-04-27 07:58 31.73967 118.86123 60 ft 12 kts 58°
2026-04-27 07:58 31.74015 118.86213 60 ft 13 kts 58°
2026-04-27 07:58 31.74065 118.86306 60 ft 13 kts 58°
2026-04-27 07:58 31.74118 118.86406 60 ft 14 kts 58°
2026-04-27 07:59 31.74174 118.86510 60 ft 15 kts 58°
2026-04-27 07:59 31.74294 118.86734 60 ft 16 kts 58°
2026-04-27 07:59 31.74344 118.86830 60 ft 9 kts 58°
2026-04-27 08:00 31.74341 118.86898 60 ft 9 kts 140°
2026-04-27 08:00 31.74314 118.86952 60 ft 8 kts 84°
2026-04-27 08:00 31.74302 118.87013 60 ft 7 kts 140°
2026-04-27 08:00 31.74270 118.87042 60 ft 5 kts 148°
2026-04-27 08:01 31.74250 118.87057 60 ft 0 kts 148°